sat.trackr.live / text

‹ back to catalog

KOREASAT 116

NORAD 45920 · 2020-048A

PAYLOAD ACTIVE UNKNOWN

§ Identity

Operator
Country
SKOR
Launch date
2020-07-20
Launch site
AFETR
Launch vehicle
Mass (kg)
RCS (m²)

Purposes: comms

External: N2YO · Heavens-Above · Gunter

§ Orbital elements

Epoch: 2026-09-20T00:22:01.269408Z

Period
1,436.15 min
Inclination
0.0193°
Eccentricity
0.0001032
Mean motion
1.00268211 rev/d
Perigee alt
35,783.2 km
Apogee alt
35,791.9 km
Semi-major
42,165.7 km
B*
0.0000e+0
RAAN
145.9119°
Arg perigee
35.4011°
Mean anomaly
299.3272°
Rev number
2,259

§ Raw data

KOREASAT 1161 45920U 20048A   26263.01529247  .00000000  00000+0  00000+0 0  99912 45920   0.0193 145.9119 0001032  35.4011 299.3272  1.00268211 22598

JSON: /api/v1/satellites/45920 · /tle

For live sub-satellite position, see the globe view (requires WebGL).

§ Visibility from observer

Set your observer location to see the next 7 days of passes ≥ 10°. The values pass through the URL so the page stays shareable.

No JS? Fill the form by hand. The geolocation button needs JavaScript.